Overview Statistics Trail Chart Weather Telemetry Raw packets
 

This is the latest recevied weather packets stored in our database for station/object N4BBA. If no packets are shown the sender has not sent any weather packets the latest 10 day(s).

<< 35 36 37 38 39 40 41 >>
Time Temp. Humidity Pressure Rain* Wind** Luminosity Snow
1777460217 13.33° C 97% 1014.2 hPa 0 mm - 27 W/m² -
1777459914 13.33° C 97% 1014 hPa 0 mm - 24 W/m² -
1777459611 13.33° C 97% 1014.1 hPa 0 mm - 15 W/m² -
1777459308 13.33° C 97% 1014 hPa 0 mm - 10 W/m² -
1777459006 12.78° C 97% 1014.2 hPa 0 mm - 6 W/m² -
1777458703 12.78° C 97% 1013.8 hPa 0 mm - 4 W/m² -
1777458399 12.78° C 97% 1013.8 hPa 0 mm - 3 W/m² -
1777458095 12.78° C 97% 1013.8 hPa 0 mm - 2 W/m² -
1777457792 12.78° C 97% 1013.8 hPa 0 mm - 1 W/m² -
1777457491 12.78° C 97% 1013.7 hPa 0 mm - 0 W/m² -
1777457187 12.78° C 97% 1013.8 hPa 0 mm - 0 W/m² -
1777456883 12.78° C 97% 1013.7 hPa 0 mm - 0 W/m² -
1777456578 12.78° C 97% 1013.7 hPa 0 mm - 0 W/m² -
1777456274 12.78° C 97% 1013.7 hPa 0 mm - 0 W/m² -
1777455970 12.78° C 97% 1013.8 hPa 0 mm - 0 W/m² -
1777455667 12.78° C 97% 1014 hPa 0 mm - 0 W/m² -
1777455363 12.22° C 97% 1014.1 hPa 0 mm - 0 W/m² -
1777455060 12.22° C 97% 1014 hPa 0 mm - 0 W/m² -
1777454757 12.22° C 97% 1013.9 hPa 0 mm - 0 W/m² -
1777454452 12.22° C 97% 1014.1 hPa 0 mm - 0 W/m² -
1777454149 12.22° C 97% 1014 hPa 0 mm - 0 W/m² -
1777453846 12.22° C 97% 1014.2 hPa 0 mm - 0 W/m² -
1777453543 12.22° C 97% 1014.1 hPa 0 mm - 0 W/m² -
1777453240 12.22° C 97% 1014 hPa 0 mm - 0 W/m² -
1777452937 12.22° C 97% 1013.9 hPa 0 mm - 0 W/m² -

* Rain latest hour (hover to see other rain measurements)
** Current wind speed in m/s (hover to see current wind gust speed)